sat.trackr.live / text

‹ back to catalog

STARLINK-5327

NORAD 55291 · 2023-010Y

PAYLOAD ACTIVE UNKNOWN

§ Identity

Operator
Country
US
Launch date
2023-01-19
Launch site
AFWTR
Launch vehicle
Mass (kg)
RCS (m²)

Purposes: comms

External: N2YO · Heavens-Above · Gunter

§ Orbital elements

Epoch: 2026-05-24T20:21:49.227552Z

Period
96.11 min
Inclination
69.9994°
Eccentricity
0.0003489
Mean motion
14.98335507 rev/d
Perigee alt
569.6 km
Apogee alt
574.5 km
Semi-major
6,950.2 km
B*
4.8387e-5
RAAN
192.5650°
Arg perigee
270.1199°
Mean anomaly
89.9560°
Rev number
18,467

§ Raw data

STARLINK-53271 55291U 23010Y   26144.84848643  .00000484  00000+0  48387-4 0  99992 55291  69.9994 192.5650 0003489 270.1199  89.9560 14.98335507184679

JSON: /api/v1/satellites/55291 · /tle

For live sub-satellite position, see the globe view (requires WebGL).

§ Visibility from observer

Set your observer location to see the next 7 days of passes ≥ 10°. The values pass through the URL so the page stays shareable.

No JS? Fill the form by hand. The geolocation button needs JavaScript.